Effective Sunday, March 17, 2024, the National Weather Service National Data Buoy Center will discontinue its Dial-A-Buoy Interactive Voice Response system. For more information, see Service Change Notice 24-06 (PDF).

Station 51WH0 - WHOTS - Woods Hole Ocean Time-series Image indicating link to RSS feed of recent meteorological observations for station 51WH0


Conditions at 51WH0 as of
(6:30 am HAST)
1630 GMT on 02/29/2024:
     

Click on the graph icon in the table below to see a time series plot of the last five days of that observation.

5-day plot - Wind Direction Wind Direction (WDIR): E ( 90 deg true )
5-day plot - Wind Speed Wind Speed (WSPD): 17.5 kts
5-day plot - Atmospheric Pressure Atmospheric Pressure (PRES):30.12 in
5-day plot - Air Temperature Air Temperature (ATMP): 71.6 °F
5-day plot - Water Temperature Water Temperature (WTMP): 74.5 °F
5-day plot - Salinity Salinity (SAL): 35.00 psu
5-day plot - Dew Point Dew Point (DEWP): 64.4 °F
5-day plot - Wind Speed at 10 Meters Wind Speed at 10 meters (WSPD10M): 19.4 kts
5-day plot - Wind Speed at 20 Meters Wind Speed at 20 meters (WSPD20M): 21.4 kts
5-day plot -  Wind Speed, Wind Gust and Atmospheric Pressure Combined plot of Wind Speed, Gust, and Air Pressure
Previous observations
TIME
(HAST)
5-day plot - Wind Direction
WDIR
 
5-day plot - Wind Speed
WSPD
kts
5-day plot - Wind Gust
GST
kts
5-day plot - Wave Height
WVHT
ft
5-day plot - Dominant Wave Period
DPD
sec
5-day plot - Average Wave Period
APD
sec
5-day plot - Mean Wave Direction
MWD
 
5-day plot - Atmospheric Pressure
PRES
in
5-day plot - Pressure Tendency
PTDY
in
5-day plot - Air Temperature
ATMP
°F
5-day plot - Water Temperature
WTMP
°F
5-day plot - Dew Point
DEWP
°F
5-day plot - Salinity
SAL
psu
5-day plot - Visibility
VIS
nmi
5-day plot - Tide (above MLLW)
TIDE
ft
2024-02-29 05:30 am E 17.5-----30.11- 70.9 74.5 64.9 35.00--
2024-02-29 04:30 am E 17.5-----30.10- 70.9 74.5 65.3 35.00--
2024-02-29 03:30 am E 17.5-----30.10- 72.0 74.5 64.9 35.00--
2024-02-29 02:30 am E 17.5-----30.11- 72.5 74.5 63.3 35.00--
2024-02-29 01:30 am E 17.5-----30.12- 72.5 74.5 63.1 35.00--
2024-02-29 12:30 am E 17.5-----30.15- 72.5 74.7 62.8 35.00--
2024-02-28 11:30 pm E 19.4-----30.15- 72.3 74.7 63.0 35.00--
2024-02-28 10:30 pm E 19.4-----30.16- 72.5 74.7 63.7 35.10--
2024-02-28 09:30 pmENE 19.4-----30.15- 72.1 74.7 62.4 35.00--
2024-02-28 08:30 pm E 19.4-----30.15- 71.2 74.7 63.9 35.10--
2024-02-28 07:30 pm E 19.4-----30.13- 70.5 74.7 64.4 35.10--
2024-02-28 06:30 pm E 17.5-----30.12- 71.1 74.7 64.8 35.10--
2024-02-28 05:30 pm E 17.5-----30.11- 72.1 74.7 64.8 35.10--
2024-02-28 04:30 pm E 15.5-----30.10- 72.1 74.7 64.2 35.10--
2024-02-28 03:30 pmENE 15.5-----30.10- 72.0 74.7 64.2 35.10--
2024-02-28 02:30 pmENE 15.5-----30.10- 72.7 74.7 63.5 35.10--
2024-02-28 01:30 pmENE 13.6-----30.12- 71.6 74.5 63.7 35.10--
2024-02-28 12:30 pmENE 15.5-----30.15- 70.5 74.5 63.9 35.10--
2024-02-28 10:30 am E 17.5-----30.18- 72.3 74.5 61.7 35.10--
2024-02-28 08:30 am E 17.5-----30.17- 72.0 74.5 60.4 35.10--
2024-02-28 07:30 am E 19.4-----30.16- 71.8 74.5 60.8 35.10--

Ocean Conditions at 51WH0 as of
(6:30 am HAST)
1630 GMT on 02/29/2024:

These oceanographic data are displayed in rounded times.

     

Click on the graph icon in the table below to see a time series plot of the last five days of that observation.

Depth (DEPTH): 3.3 ft
5-day plot - Ocean Temperature Ocean Temperature (OTMP):74.48 °F
5-day plot - Salinity Salinity (SAL):35.00 psu
Previous observations
TIME
(HAST)
DEPTH
ft
5-day plot - Ocean Temperature
OTMP
°F
5-day plot - Conductivity
COND
mS/cm
5-day plot - Salinity
SAL
psu
5-day plot - Oxygen Concentration
O2%
%
5-day plot - Oxygen Concentration
O2PPM
ppm
5-day plot - Chlorophyll
CLCON
ug/l
5-day plot - Turbidity
TURB
FTU
5-day plot - pH
PH
 
5-day plot - Eh
EH
mv
2024-02-29 05:30 am 3.374.48-35.00------
2024-02-29 04:30 am 3.374.48-35.00------
2024-02-29 03:30 am 3.374.48-35.00------
2024-02-29 02:30 am 3.374.48-35.00------
2024-02-29 01:30 am 3.374.48-35.00------
2024-02-29 12:30 am 3.374.66-35.00------
2024-02-28 11:30 pm 3.374.66-35.00------
2024-02-28 10:30 pm 3.374.66-35.10------
2024-02-28 09:30 pm 3.374.66-35.00------
2024-02-28 08:30 pm 3.374.66-35.10------
2024-02-28 07:30 pm 3.374.66-35.10------
2024-02-28 06:30 pm 3.374.66-35.10------
2024-02-28 05:30 pm 3.374.66-35.10------
2024-02-28 04:30 pm 3.374.66-35.10------
2024-02-28 03:30 pm 3.374.66-35.10------
2024-02-28 02:30 pm 3.374.66-35.10------
2024-02-28 01:30 pm 3.374.48-35.10------
2024-02-28 12:30 pm 3.374.48-35.10------
2024-02-28 10:30 am 3.374.48-35.10------
2024-02-28 08:30 am 3.374.48-35.10------
2024-02-28 07:30 am 3.374.48-35.10------

Solar Radiation Conditions at 51WH0 as of
(6:30 am HAST)
1630 GMT on 02/29/2024:
     

Click on the graph icon in the table below to see a time series plot of the last five days of that observation.

5-day plot - Short Wave Radiation 2 Short Wave Radiation 2 (SWRAD): 7.6watts/meter2
5-day plot - Long Wave Radiation Long Wave Radiation (LWRAD): 364.3watts/meter2
Previous observations
TIME
(HAST)
5-day plot - Short Wave Radiation 1
SRAD1
w/m2
5-day plot - Short Wave Radiation 2
SRAD2
w/m2
5-day plot - Long Wave Radiation
LRAD
w/m2
2024-02-29 05:30 am- 7.5 390.2
2024-02-29 04:30 am- 5.8 392.2
2024-02-29 03:30 am- 5.8 381.5
2024-02-29 02:30 am- 6.2 371.2
2024-02-29 01:30 am- 6.4 369.5
2024-02-29 12:30 am- 6.3 365.5
2024-02-28 11:30 pm- 6.2 369.3
2024-02-28 10:30 pm- 6.3 385.6
2024-02-28 09:30 pm- 3.4 401.9
2024-02-28 08:30 pm- 6.6 399.8
2024-02-28 07:30 pm- 6.3 378.8
2024-02-28 06:30 pm- 21.7 378.8
2024-02-28 05:30 pm- 110.5 390.7
2024-02-28 04:30 pm- 332.9 385.5
2024-02-28 03:30 pm- 301.1 394.9
2024-02-28 02:30 pm- 706.8 385.9
2024-02-28 01:30 pm- 699.2 385.8
2024-02-28 12:30 pm- 801.3 385.7
2024-02-28 10:30 am- 588.5 357.4
2024-02-28 08:30 am- 191.8 370.2
2024-02-28 07:30 am- 40.6 377.1